Home > Weather > Winamac > Past weeks

Flag for USA Past Weather in Winamac, Indiana, USA — Yesterday and Last 2 Weeks

Now
52 °F

Clear.


Feels Like: 52 °F
Forecast: 51 / 77 °F
Wind: No wind

Location: Porter County Municipal Airport

Current Time: Jun 29, 2016 at 7:01:28 AM

Latest Report: Jun 29, 2016 at 5:56 AM


Visibility: 10 mi

Pressure: 30.12 "Hg

Humidity: 86%

Dew Point: 48 °F

Location of WinamacLocation

Past Weather in Winamac — Graph

°F

Winamac Temperature Yesterday

Maximum temperature yesterday: 67 °F (at 2:56 AM)
Minimum temperature yesterday: 56 °F (at 11:56 PM)
Average temperature yesterday: 64 °F

High & Low Weather Summary for the Past Weeks

 TemperatureHumidityPressure
High93 °F (Jun 27, 2:56 PM)96% (Jun 15, 6:56 AM)30.26 "Hg (Jun 15, 6:56 AM)
Low50 °F (Jun 29, 3:56 AM)23% (Jun 18, 2:56 PM)29.70 "Hg (Jun 16, 12:56 AM)
Average74 °F66%30.00 "Hg
* Reported Jun 14 5:56 AM — Jun 29 5:56 AM, Winamac, Weather by CustomWeather, © 2016

Note: Actual official high and low records may vary slightly from our data, if they occured in-between our weather recording intervals... More about our weather records

Advertising

Winamac Weather History for the Previous 24 Hours

Scroll right to see more
 ConditionsComfort  
Time TempWeatherWind HumidityBarometerVisibility
5:56 AM
Wed, Jun 29
52 °FClear.No wind86%30.12 "Hg10 mi
4:56 AM50 °FClear.3 mph89%30.14 "Hg10 mi
3:56 AM50 °FClear.6 mph89%30.15 "Hg10 mi
2:56 AM51 °FClear.No wind86%30.13 "Hg10 mi
1:56 AM53 °FClear.No wind77%30.12 "Hg10 mi
12:56 AM54 °FClear.3 mph72%30.11 "Hg10 mi
11:56 PM
Tue, Jun 28
56 °FClear.5 mph70%30.11 "Hg10 mi
10:56 PM58 °FClear.No wind60%30.12 "Hg10 mi
9:56 PM59 °FClear.6 mph58%30.12 "Hg10 mi
8:56 PM62 °FSunny.9 mph54%30.12 "Hg10 mi
7:56 PM64 °FSunny.10 mph52%30.13 "Hg10 mi
6:56 PM64 °FSunny.13 mph52%30.14 "Hg10 mi
5:56 PM65 °FSunny.10 mph56%30.15 "Hg10 mi
4:56 PM64 °FOvercast.8 mph65%30.16 "Hg10 mi
3:56 PM63 °FOvercast.15 mph68%30.16 "Hg10 mi
2:56 PM66 °FOvercast.14 mph61%30.15 "Hg10 mi
1:56 PM65 °FMostly cloudy.9 mph66%30.15 "Hg10 mi
1:04 PM67 °FMore clouds than sun.9 mph63%30.17 "Hg10 mi
12:56 PM65 °FMostly cloudy.10 mph66%30.17 "Hg10 mi
11:56 AM65 °FMore clouds than sun.10 mph66%30.16 "Hg10 mi
10:56 AM65 °FOvercast.9 mph66%30.14 "Hg10 mi
9:56 AM65 °FPartly sunny.9 mph68%30.14 "Hg10 mi
8:56 AM64 °FPartly sunny.9 mph70%30.13 "Hg10 mi
7:56 AM65 °FScattered clouds.7 mph76%30.11 "Hg10 mi
Weather by CustomWeather, © 2016

See weather overviewHow to use our weather pages